Regional Weather Roundup
Issued by NWS

Home | Current Version | Previous Version | Graphics & Text | Print | Product List | Glossary Off
Versions: 1 2 3 4 5 6 7 8 9 10 11 12 13 14 15 16 17 18 19 20 21 22 23 24 25 26 27 28 29 30 31 32 33 34 35 36 37 38 39 40 41 42 43 44 45 46 47 48 49 50

000
ASUS43 KMKX 242000
RWRWI

WISCONSIN REGIONAL WEATHER ROUNDUP
NATIONAL WEATHER SERVICE MILWAUKEE/SULLIVAN WI
200 PM CST FRI NOV 24 2017

NOTE: "FAIR" INDICATES FEW OR NO CLOUDS BELOW 12,000 FEET WITH NO
SIGNIFICANT WEATHER AND/OR OBSTRUCTIONS TO VISIBILITY.

WIZ001-002-006>008-014>016-023>028-242100-
NORTHWEST WISCONSIN

CITY           SKY/WX    TMP DP  RH WIND       PRES   REMARKS
SUPERIOR ARPT  CLOUDY    43  41  94 W8        29.33R
ASHLAND        LGT RAIN  46  42  86 SW9       29.30R
HAYWARD        CLOUDY    48  42  80 SW6       29.33R
SIREN          DRIZZLE   48  41  76 W6        29.35F
CUMBERLAND     DRIZZLE   50  39  66 W7        29.35F
RICE LAKE      PTSUNNY   55  39  55 W8        29.37S
CHETEK         PTSUNNY   54  40  59 NW6       29.35S
LADYSMITH      CLOUDY    56  39  53 W9        29.35R
EAU CLAIRE     NOT AVBL
MENOMONIE      MOSUNNY   59  39  47 W12G22    29.37R
NEW RICHMOND   CLOUDY    57  37  47 W6        29.36F
OSCEOLA        CLOUDY    55  41  59 W5        29.39S
$$

WIZ003>005-009-010-017-018-242100-
NORTH CENTRAL WISCONSIN

CITY           SKY/WX    TMP DP  RH WIND       PRES   REMARKS
MANITOWISH WTR CLOUDY    50  39  65 SW7       29.29R
ARBOR VITAE    MOSUNNY   53  39  59 W12       29.29R
WOODRUFF       MOSUNNY   53  39  59 W12       29.29R
RHINELANDER    MOSUNNY   54  39  57 W10       29.29F
EAGLE RIVER    MOSUNNY   54  36  50 W15       29.27S
LAND O LAKES   LGT RAIN  52  37  56 W6        29.27S
PHILLIPS       MOSUNNY   54  39  58 SW9       29.30F
TOMAHAWK       PTSUNNY   52  37  56 SW3       29.30F
MEDFORD        MOSUNNY   53  38  56 W13G20    29.31R
MERRILL        CLOUDY    55  39  54 W9        29.31R
$$

WIZ029-030-035-036-043>047-242100-
CENTRAL WISCONSIN

CITY           SKY/WX    TMP DP  RH WIND       PRES   REMARKS
WAUSAU         SUNNY     59  38  45 W12       29.29R
MOSINEE        MOSUNNY   61  37  41 SW15G23   29.30R
MARSHFIELD     SUNNY     60  37  42 W15G23    29.31R
STEVENS POINT  SUNNY     62  37  40 SW15      29.29R
WAUPACA        SUNNY     67  36  31 SW17G24   29.27F
WAUTOMA        SUNNY     65  38  36 SW17G24   29.28F
WISC RAPIDS    SUNNY     64  39  39 W16G23    29.31R
CAMP DOUGLAS   SUNNY     64  38  39 SW15G23   29.32R
$$

WIZ011>013-019>022-031-037>040-048>050-242100-
NORTHEAST WISCONSIN

CITY           SKY/WX    TMP DP  RH WIND       PRES   REMARKS
ANTIGO         CLOUDY    55  38  52 W10       29.29R
SHAWANO        MOSUNNY   63  37  38 S3        29.25F
OCONTO         MOSUNNY   59  38  44 SW13      29.25F
STURGEON BAY   MOSUNNY   49  39  68 S15       29.26F
GREEN BAY      MOSUNNY   60  40  47 S17G25    29.27F
MANITOWOC      SUNNY     53  39  59 S13       29.31F
APPLETON       PTSUNNY   61  34  36 S20       29.27F
CLINTONVILLE   MOSUNNY   63  36  36 SW13      29.25F
OSHKOSH        SUNNY     63  39  41 SW23G37   29.28F
$$

WIZ032>034-041-042-053>061-242100-
SOUTHWEST WISCONSIN

CITY           SKY/WX    TMP DP  RH WIND       PRES   REMARKS
LA CROSSE      SUNNY     64  40  41 W14       29.36R
SPARTA         SUNNY     64  40  41 SW7G17    29.33F
VIROQUA        SUNNY     61  41  47 SW17G23   29.36S
BOSCOBEL       SUNNY     68  38  33 SW17G26   29.36F
PRAIRIE DU CHI SUNNY     66  36  32 SW13G20   29.35F
PLATTEVILLE    SUNNY     66  41  40 S20       29.38F
$$

WIZ056-057-062-063-064-067-068-242100-
SOUTH CENTRAL WISCONSIN

CITY           SKY/WX    TMP DP  RH WIND       PRES   REMARKS
REEDSBURG      SUNNY     64  39  40 SW12G23   29.32F
BARABOO/DELLS  SUNNY     64  35  35 SW14G21   29.32F
LONE ROCK      NOT AVBL
MINERAL POINT  SUNNY     66  37  34 SW17G29   29.37F
MADISON        MOSUNNY   63  38  39 SW12G24   29.36F
MIDDLETON      SUNNY     65  36  33 SW17G29   29.36F
WATERTOWN      SUNNY     64  38  39 S20G25    29.37F
MONROE         SUNNY     63  36  36 S23G30    29.39F
JANESVILLE     SUNNY     66  36  32 S24G32    29.40F
$$

WIZ051-052-058>065-066-070>072-242100-
SOUTHEAST WISCONSIN

CITY           SKY/WX    TMP DP  RH WIND       PRES   REMARKS
MILWAUKEE      MOSUNNY   64  39  39 S21G29    29.42F
WAUKESHA       SUNNY     61  36  39 S18G28    29.41F
MILWAUKEE/TIMM SUNNY     64  32  29 S16G28    29.41F
RACINE         SUNNY     63  38  39 S18G36    29.44F
BURLINGTON     SUNNY     66  44  44 S18G31    29.43F
KENOSHA        SUNNY     63  38  39 SW21G31   29.44F
FOND DU LAC    SUNNY     63  36  36 S22G35    29.31F
SHEBOYGAN      SUNNY     66  39  37 S22G31    29.33F
WEST BEND      SUNNY     63  34  34 SW22G30   29.37F
JUNEAU         SUNNY     63  38  40 S23G29    29.38F
$$

LSZ147-162-242100-
LAKE SUPERIOR

STATION/POSITION TIME  TEMP    WIND        PRES    WAVE
                       AIR SEA DIR/SP/G            HT/PER
                 (UTC) (F)     (DEG/KT/KT) (MB)    (FT/S)
DEVILS ISLAND    1900   43     240/ 19/ 22  991.1R
SAXON HARBOR     1940   50     200/  6/ 14  991.2R
$$

LMZ867-665-643>646-242100-
LAKE MICHIGAN

STATION/POSITION TIME  TEMP    WIND        PRES    WAVE
                       AIR SEA DIR/SP/G            HT/PER
                 (UTC) (F)     (DEG/KT/KT) (MB)    (FT/S)
N MID LAKE BUOY  1850   48 47  190/ 29/ 35  992.1F  11/ 8
NORTHPORT PIER   1940   47     180/ 10/ 17  991.2F
KEWAUNEE LAKESHO 1930   43     180/ 16/ 18  992.2F
SHEBOYGAN LAKESH 1900   46     170/ 26/ 28  994.7F
PORT WASHINGTON  1940   53     190/ 10/ 22  995.9F
MILWAUKEE LAKESH 1920   61     200/ 23/ 25   N/A
S MID LAKE BUOY  1850   48 47  190/ 23/ 29 1000.1F   6/ 6
KENOSHA   LAKESH 1900   62     210/ 21/ 30  998.3
$$

TC  - TEMPERATURE IN CELSIUS
VSB - VISIBILITY IN STATUTE MILES
WCI - WIND CHILL INDEX
HX  - HEAT INDEX





USA.gov is the U.S. government's official web portal to all federal, state and local government web resources and services.